<?xml version="1.0" encoding="UTF-8" standalone="no" ?>
<gpx xmlns="http://www.topografix.com/GPX/1/1" creator="MapSource 6.16.3" version="1.1" xmlns:xsi="http://www.w3.org/2001/XMLSchema-instance" xsi:schemaLocation="http://www.topografix.com/GPX/1/1 http://www.topografix.com/GPX/1/1/gpx.xsd">

  <metadata>
    <link href="http://www.garmin.com">
      <text>Garmin International</text>
    </link>
    <time>2016-02-14T09:04:02Z</time>
    <bounds maxlat="52.215830991044641" maxlon="11.075202031061053" minlat="52.159850019961596" minlon="10.999922985211015"/>
  </metadata>

  <wpt lat="52.191188028082252" lon="11.048113983124495">
    <ele>135.90000000000001</ele>
    <time>2016-02-10T08:02:34Z</time>
    <name>"Chinesische Mauer" mit Pomona</name>
    <sym>Scenic Area</sym>
    <extensions>
      <gpxx:WaypointExtension xmlns:gpxx="http://www.garmin.com/xmlschemas/GpxExtensions/v3">
        <gpxx:DisplayMode>SymbolAndName</gpxx:DisplayMode>
      </gpxx:WaypointExtension>
    </extensions>
  </wpt>

  <wpt lat="52.209416991099715" lon="11.026666034013033">
    <ele>128.80000000000001</ele>
    <time>2016-02-10T08:02:34Z</time>
    <name>Aussicht Lappwaldsee</name>
    <sym>Scenic Area</sym>
    <extensions>
      <gpxx:WaypointExtension xmlns:gpxx="http://www.garmin.com/xmlschemas/GpxExtensions/v3">
        <gpxx:DisplayMode>SymbolAndName</gpxx:DisplayMode>
      </gpxx:WaypointExtension>
    </extensions>
  </wpt>

  <wpt lat="52.191477958112955" lon="11.045874003320932">
    <ele>132.30000000000001</ele>
    <time>2016-02-10T08:02:34Z</time>
    <name>Gingko-Baum</name>
    <sym>Scenic Area</sym>
    <extensions>
      <gpxx:WaypointExtension xmlns:gpxx="http://www.garmin.com/xmlschemas/GpxExtensions/v3">
        <gpxx:DisplayMode>SymbolAndName</gpxx:DisplayMode>
      </gpxx:WaypointExtension>
    </extensions>
  </wpt>

  <wpt lat="52.187808025628328" lon="11.046417988836765">
    <ele>127</ele>
    <time>2016-02-10T08:02:34Z</time>
    <name>Harbke</name>
    <cmt>Harbke</cmt>
    <desc>Harbke</desc>
    <sym>City (Small)</sym>
    <extensions>
      <gpxx:WaypointExtension xmlns:gpxx="http://www.garmin.com/xmlschemas/GpxExtensions/v3">
        <gpxx:DisplayMode>SymbolAndName</gpxx:DisplayMode>
      </gpxx:WaypointExtension>
    </extensions>
  </wpt>

  <wpt lat="52.161434032022953" lon="11.05528000742197">
    <ele>110.90000000000001</ele>
    <time>2016-02-10T08:02:34Z</time>
    <name>Hohnsleben</name>
    <cmt>Hohnsleben</cmt>
    <desc>Hohnsleben</desc>
    <sym>City (Small)</sym>
    <extensions>
      <gpxx:WaypointExtension xmlns:gpxx="http://www.garmin.com/xmlschemas/GpxExtensions/v3">
        <gpxx:DisplayMode>SymbolAndName</gpxx:DisplayMode>
      </gpxx:WaypointExtension>
    </extensions>
  </wpt>

  <wpt lat="52.190932966768742" lon="11.047864034771919">
    <ele>134.59999999999999</ele>
    <time>2016-02-10T08:02:34Z</time>
    <name>Orangerie</name>
    <sym>Scenic Area</sym>
    <extensions>
      <gpxx:WaypointExtension xmlns:gpxx="http://www.garmin.com/xmlschemas/GpxExtensions/v3">
        <gpxx:DisplayMode>SymbolAndName</gpxx:DisplayMode>
      </gpxx:WaypointExtension>
    </extensions>
  </wpt>

  <wpt lat="52.207293016836047" lon="11.000130018219352">
    <ele>122</ele>
    <time>2016-02-10T08:02:34Z</time>
    <name>Petersberg</name>
    <sym>Picnic Area</sym>
    <extensions>
      <gpxx:WaypointExtension xmlns:gpxx="http://www.garmin.com/xmlschemas/GpxExtensions/v3">
        <gpxx:DisplayMode>SymbolAndName</gpxx:DisplayMode>
      </gpxx:WaypointExtension>
    </extensions>
  </wpt>

  <wpt lat="52.191060958430171" lon="11.046713031828403">
    <ele>131.5</ele>
    <time>2016-02-10T08:02:34Z</time>
    <name>Schloss-Ruine</name>
    <sym>Scenic Area</sym>
    <extensions>
      <gpxx:WaypointExtension xmlns:gpxx="http://www.garmin.com/xmlschemas/GpxExtensions/v3">
        <gpxx:DisplayMode>SymbolAndName</gpxx:DisplayMode>
      </gpxx:WaypointExtension>
    </extensions>
  </wpt>

  <wpt lat="52.191297998651862" lon="11.044773040339351">
    <ele>131.30000000000001</ele>
    <time>2016-02-10T08:02:34Z</time>
    <name>St. Levin</name>
    <sym>Waypoint</sym>
    <extensions>
      <gpxx:WaypointExtension xmlns:gpxx="http://www.garmin.com/xmlschemas/GpxExtensions/v3">
        <gpxx:DisplayMode>SymbolAndName</gpxx:DisplayMode>
      </gpxx:WaypointExtension>
    </extensions>
  </wpt>

  <wpt lat="52.215830991044641" lon="11.006156019866467">
    <ele>133</ele>
    <time>2016-02-10T08:02:34Z</time>
    <name>Start Pakplatz Lappwaldsee</name>
    <sym>Pin, Green</sym>
    <extensions>
      <gpxx:WaypointExtension xmlns:gpxx="http://www.garmin.com/xmlschemas/GpxExtensions/v3">
        <gpxx:DisplayMode>SymbolAndName</gpxx:DisplayMode>
      </gpxx:WaypointExtension>
    </extensions>
  </wpt>

  <wpt lat="52.166373990476131" lon="11.033782018348575">
    <ele>106</ele>
    <time>2016-02-10T08:02:34Z</time>
    <name>Wulfersdorfer Schweiz</name>
    <sym>Picnic Area</sym>
    <extensions>
      <gpxx:WaypointExtension xmlns:gpxx="http://www.garmin.com/xmlschemas/GpxExtensions/v3">
        <gpxx:DisplayMode>SymbolAndName</gpxx:DisplayMode>
      </gpxx:WaypointExtension>
    </extensions>
  </wpt>

  <trk>
    <name>Naturpark F06 (Lappwaldsee-Route)</name>
    <extensions>
      <gpxx:TrackExtension xmlns:gpxx="http://www.garmin.com/xmlschemas/GpxExtensions/v3">
        <gpxx:DisplayColor>Blue</gpxx:DisplayColor>
      </gpxx:TrackExtension>
    </extensions>
    <trkseg>
      <trkpt lat="52.215830991044641" lon="11.006156019866467">
        <ele>133</ele>
        <time>2016-02-10T08:02:34Z</time>
      </trkpt>
      <trkpt lat="52.215479034930468" lon="11.006134981289506">
        <ele>131</ele>
        <time>2016-02-10T08:02:34Z</time>
      </trkpt>
      <trkpt lat="52.215369986370206" lon="11.006097011268139">
        <ele>130.30000000000001</ele>
        <time>2016-02-10T08:02:34Z</time>
      </trkpt>
      <trkpt lat="52.214981988072395" lon="11.005861982703209">
        <ele>127.2</ele>
        <time>2016-02-10T08:02:34Z</time>
      </trkpt>
      <trkpt lat="52.214934965595603" lon="11.005805991590023">
        <ele>126.7</ele>
        <time>2016-02-10T08:02:34Z</time>
      </trkpt>
      <trkpt lat="52.214885009452701" lon="11.00569099187851">
        <ele>126.3</ele>
        <time>2016-02-10T08:02:34Z</time>
      </trkpt>
      <trkpt lat="52.21484100446105" lon="11.00543400272727">
        <ele>125.8</ele>
        <time>2016-02-10T08:02:34Z</time>
      </trkpt>
      <trkpt lat="52.214700020849705" lon="11.003927020356059">
        <ele>123.90000000000001</ele>
        <time>2016-02-10T08:02:34Z</time>
      </trkpt>
      <trkpt lat="52.214543027803302" lon="11.003292007371783">
        <ele>122.5</ele>
        <time>2016-02-10T08:02:34Z</time>
      </trkpt>
      <trkpt lat="52.214431967586279" lon="11.003008028492332">
        <ele>121.7</ele>
        <time>2016-02-10T08:02:34Z</time>
      </trkpt>
      <trkpt lat="52.214278997853398" lon="11.002717008814216">
        <ele>121.2</ele>
        <time>2016-02-10T08:02:34Z</time>
      </trkpt>
      <trkpt lat="52.213935004547238" lon="11.002291962504387">
        <ele>120.8</ele>
        <time>2016-02-10T08:02:34Z</time>
      </trkpt>
      <trkpt lat="52.213614983484149" lon="11.002008989453316">
        <ele>120.09999999999999</ele>
        <time>2016-02-10T08:02:34Z</time>
      </trkpt>
      <trkpt lat="52.211621012538671" lon="11.000438975170255">
        <ele>118.90000000000001</ele>
        <time>2016-02-10T08:02:34Z</time>
      </trkpt>
      <trkpt lat="52.211179034784436" lon="11.000215010717511">
        <ele>119.5</ele>
        <time>2016-02-10T08:02:34Z</time>
      </trkpt>
      <trkpt lat="52.210611999034882" lon="11.000086013227701">
        <ele>119.2</ele>
        <time>2016-02-10T08:02:34Z</time>
      </trkpt>
      <trkpt lat="52.210128027945757" lon="11.000034967437387">
        <ele>119</ele>
        <time>2016-02-10T08:02:34Z</time>
      </trkpt>
      <trkpt lat="52.208396997302771" lon="10.999922985211015">
        <ele>121.8</ele>
        <time>2016-02-10T08:02:34Z</time>
      </trkpt>
      <trkpt lat="52.208113018423319" lon="10.999948969110847">
        <ele>121.8</ele>
        <time>2016-02-10T08:02:34Z</time>
      </trkpt>
      <trkpt lat="52.207734994590282" lon="11.000025998800993">
        <ele>121.90000000000001</ele>
        <time>2016-02-10T08:02:34Z</time>
      </trkpt>
      <trkpt lat="52.207293016836047" lon="11.000130018219352">
        <ele>121.7</ele>
        <time>2016-02-10T08:02:34Z</time>
      </trkpt>
      <trkpt lat="52.20701901242137" lon="11.000240994617343">
        <ele>121.5</ele>
        <time>2016-02-10T08:02:34Z</time>
      </trkpt>
      <trkpt lat="52.2065269947052" lon="11.000560009852052">
        <ele>122</ele>
        <time>2016-02-10T08:02:34Z</time>
      </trkpt>
      <trkpt lat="52.206830000504851" lon="11.001112964004278">
        <ele>119.09999999999999</ele>
        <time>2016-02-10T08:02:34Z</time>
      </trkpt>
      <trkpt lat="52.206866964697838" lon="11.001284960657358">
        <ele>118.3</ele>
        <time>2016-02-10T08:02:34Z</time>
      </trkpt>
      <trkpt lat="52.206875011324883" lon="11.001348998397589">
        <ele>118</ele>
        <time>2016-02-10T08:02:34Z</time>
      </trkpt>
      <trkpt lat="52.206830000504851" lon="11.001112964004278">
        <ele>119.09999999999999</ele>
        <time>2016-02-10T08:02:34Z</time>
      </trkpt>
      <trkpt lat="52.206582985818386" lon="11.000657994300127">
        <ele>121.59999999999999</ele>
        <time>2016-02-10T08:02:34Z</time>
      </trkpt>
      <trkpt lat="52.2065269947052" lon="11.000560009852052">
        <ele>122</ele>
        <time>2016-02-10T08:02:34Z</time>
      </trkpt>
      <trkpt lat="52.205874966457486" lon="11.000966029241681">
        <ele>122.7</ele>
        <time>2016-02-10T08:02:34Z</time>
      </trkpt>
      <trkpt lat="52.205630969256163" lon="11.00115898065269">
        <ele>122.90000000000001</ele>
        <time>2016-02-10T08:02:34Z</time>
      </trkpt>
      <trkpt lat="52.205030992627144" lon="11.001743031665683">
        <ele>122.40000000000001</ele>
        <time>2016-02-10T08:02:34Z</time>
      </trkpt>
      <trkpt lat="52.203911002725363" lon="11.002909960225224">
        <ele>124.3</ele>
        <time>2016-02-10T08:02:34Z</time>
      </trkpt>
      <trkpt lat="52.203751998022199" lon="11.003080029040575">
        <ele>124.8</ele>
        <time>2016-02-10T08:02:34Z</time>
      </trkpt>
      <trkpt lat="52.203936986625195" lon="11.003451012074947">
        <ele>122.7</ele>
        <time>2016-02-10T08:02:34Z</time>
      </trkpt>
      <trkpt lat="52.203984009101987" lon="11.00358797237277">
        <ele>121.2</ele>
        <time>2016-02-10T08:02:34Z</time>
      </trkpt>
      <trkpt lat="52.203989960253239" lon="11.00367397069931">
        <ele>120.2</ele>
        <time>2016-02-10T08:02:34Z</time>
      </trkpt>
      <trkpt lat="52.203974034637213" lon="11.003769021481276">
        <ele>119.40000000000001</ele>
        <time>2016-02-10T08:02:34Z</time>
      </trkpt>
      <trkpt lat="52.203936986625195" lon="11.003854013979435">
        <ele>118.90000000000001</ele>
        <time>2016-02-10T08:02:34Z</time>
      </trkpt>
      <trkpt lat="52.203847970813513" lon="11.003983011469245">
        <ele>118.59999999999999</ele>
        <time>2016-02-10T08:02:34Z</time>
      </trkpt>
      <trkpt lat="52.203747974708676" lon="11.004051994532347">
        <ele>119.09999999999999</ele>
        <time>2016-02-10T08:02:34Z</time>
      </trkpt>
      <trkpt lat="52.2036690171808" lon="11.004077978432178">
        <ele>119.90000000000001</ele>
        <time>2016-02-10T08:02:34Z</time>
      </trkpt>
      <trkpt lat="52.203457960858941" lon="11.004086025059223">
        <ele>121.7</ele>
        <time>2016-02-10T08:02:34Z</time>
      </trkpt>
      <trkpt lat="52.203379003331065" lon="11.004119971767068">
        <ele>122</ele>
        <time>2016-02-10T08:02:34Z</time>
      </trkpt>
      <trkpt lat="52.201770013198256" lon="11.005699960514903">
        <ele>120</ele>
        <time>2016-02-10T08:02:34Z</time>
      </trkpt>
      <trkpt lat="52.201632969081402" lon="11.005854019895196">
        <ele>119.2</ele>
        <time>2016-02-10T08:02:34Z</time>
      </trkpt>
      <trkpt lat="52.201528027653694" lon="11.005940018221736">
        <ele>119.2</ele>
        <time>2016-02-10T08:02:34Z</time>
      </trkpt>
      <trkpt lat="52.201228039339185" lon="11.006049988791347">
        <ele>121.09999999999999</ele>
        <time>2016-02-10T08:02:34Z</time>
      </trkpt>
      <trkpt lat="52.201107004657388" lon="11.006136992946267">
        <ele>121.7</ele>
        <time>2016-02-10T08:02:34Z</time>
      </trkpt>
      <trkpt lat="52.200776003301144" lon="11.006575031206012">
        <ele>121.3</ele>
        <time>2016-02-10T08:02:34Z</time>
      </trkpt>
      <trkpt lat="52.200627978891134" lon="11.006712997332215">
        <ele>121.5</ele>
        <time>2016-02-10T08:02:34Z</time>
      </trkpt>
      <trkpt lat="52.199960025027394" lon="11.007055984809995">
        <ele>125.8</ele>
        <time>2016-02-10T08:02:34Z</time>
      </trkpt>
      <trkpt lat="52.199802026152611" lon="11.007184982299805">
        <ele>126.3</ele>
        <time>2016-02-10T08:02:34Z</time>
      </trkpt>
      <trkpt lat="52.199571020901203" lon="11.007425040006638">
        <ele>126.7</ele>
        <time>2016-02-10T08:02:34Z</time>
      </trkpt>
      <trkpt lat="52.199186962097883" lon="11.008000038564205">
        <ele>125.3</ele>
        <time>2016-02-10T08:02:34Z</time>
      </trkpt>
      <trkpt lat="52.199013037607074" lon="11.008360963314772">
        <ele>124.3</ele>
        <time>2016-02-10T08:02:34Z</time>
      </trkpt>
      <trkpt lat="52.198850009590387" lon="11.008651982992887">
        <ele>123</ele>
        <time>2016-02-10T08:02:34Z</time>
      </trkpt>
      <trkpt lat="52.198644988238811" lon="11.008935961872339">
        <ele>122.09999999999999</ele>
        <time>2016-02-10T08:02:34Z</time>
      </trkpt>
      <trkpt lat="52.198428986594081" lon="11.00919303484261">
        <ele>121.3</ele>
        <time>2016-02-10T08:02:34Z</time>
      </trkpt>
      <trkpt lat="52.198245003819466" lon="11.00932203233242">
        <ele>122</ele>
        <time>2016-02-10T08:02:34Z</time>
      </trkpt>
      <trkpt lat="52.197823980823159" lon="11.009441977366805">
        <ele>124.40000000000001</ele>
        <time>2016-02-10T08:02:34Z</time>
      </trkpt>
      <trkpt lat="52.197456015273929" lon="11.009656973183155">
        <ele>125.8</ele>
        <time>2016-02-10T08:02:34Z</time>
      </trkpt>
      <trkpt lat="52.197272032499313" lon="11.009656973183155">
        <ele>127.2</ele>
        <time>2016-02-10T08:02:34Z</time>
      </trkpt>
      <trkpt lat="52.197087965905666" lon="11.009698966518044">
        <ele>128.09999999999999</ele>
        <time>2016-02-10T08:02:34Z</time>
      </trkpt>
      <trkpt lat="52.196940025314689" lon="11.009698966518044">
        <ele>129.19999999999999</ele>
        <time>2016-02-10T08:02:34Z</time>
      </trkpt>
      <trkpt lat="52.196909012272954" lon="11.009673988446593">
        <ele>129.69999999999999</ele>
        <time>2016-02-10T08:02:34Z</time>
      </trkpt>
      <trkpt lat="52.196876993402839" lon="11.009844979271293">
        <ele>128.09999999999999</ele>
        <time>2016-02-10T08:02:34Z</time>
      </trkpt>
      <trkpt lat="52.196803987026215" lon="11.010059975087643">
        <ele>126.40000000000001</ele>
        <time>2016-02-10T08:02:34Z</time>
      </trkpt>
      <trkpt lat="52.19675101339817" lon="11.010145973414183">
        <ele>126</ele>
        <time>2016-02-10T08:02:34Z</time>
      </trkpt>
      <trkpt lat="52.196655962616205" lon="11.010215040296316">
        <ele>125.7</ele>
        <time>2016-02-10T08:02:34Z</time>
      </trkpt>
      <trkpt lat="52.194552021101117" lon="11.011004028841853">
        <ele>124.5</ele>
        <time>2016-02-10T08:02:34Z</time>
      </trkpt>
      <trkpt lat="52.193883983418345" lon="11.011133026331663">
        <ele>129.19999999999999</ele>
        <time>2016-02-10T08:02:34Z</time>
      </trkpt>
      <trkpt lat="52.193747023120522" lon="11.011193040758371">
        <ele>130.09999999999999</ele>
        <time>2016-02-10T08:02:34Z</time>
      </trkpt>
      <trkpt lat="52.193651972338557" lon="11.011279039084911">
        <ele>130.5</ele>
        <time>2016-02-10T08:02:34Z</time>
      </trkpt>
      <trkpt lat="52.193478969857097" lon="11.011544996872544">
        <ele>131.19999999999999</ele>
        <time>2016-02-10T08:02:34Z</time>
      </trkpt>
      <trkpt lat="52.192701967433095" lon="11.013120040297508">
        <ele>130.80000000000001</ele>
        <time>2016-02-10T08:02:34Z</time>
      </trkpt>
      <trkpt lat="52.192628961056471" lon="11.013265969231725">
        <ele>131.90000000000001</ele>
        <time>2016-02-10T08:02:34Z</time>
      </trkpt>
      <trkpt lat="52.187823029235005" lon="11.011868035420775">
        <ele>129</ele>
        <time>2016-02-10T08:02:34Z</time>
      </trkpt>
      <trkpt lat="52.186985006555915" lon="11.01202704012394">
        <ele>128</ele>
        <time>2016-02-10T08:02:34Z</time>
      </trkpt>
      <trkpt lat="52.186815021559596" lon="11.012100968509912">
        <ele>128</ele>
        <time>2016-02-10T08:02:34Z</time>
      </trkpt>
      <trkpt lat="52.18637396581471" lon="11.012364998459816">
        <ele>127.90000000000001</ele>
        <time>2016-02-10T08:02:34Z</time>
      </trkpt>
      <trkpt lat="52.185549018904567" lon="11.012763977050781">
        <ele>125.59999999999999</ele>
        <time>2016-02-10T08:02:34Z</time>
      </trkpt>
      <trkpt lat="52.184282010421157" lon="11.013192040845752">
        <ele>125</ele>
        <time>2016-02-10T08:02:34Z</time>
      </trkpt>
      <trkpt lat="52.183169983327389" lon="11.013536034151912">
        <ele>124.3</ele>
        <time>2016-02-10T08:02:34Z</time>
      </trkpt>
      <trkpt lat="52.182691041380167" lon="11.013741977512836">
        <ele>124.5</ele>
        <time>2016-02-10T08:02:34Z</time>
      </trkpt>
      <trkpt lat="52.182512003928423" lon="11.013870975002646">
        <ele>124.5</ele>
        <time>2016-02-10T08:02:34Z</time>
      </trkpt>
      <trkpt lat="52.181817982345819" lon="11.014120001345873">
        <ele>124.09999999999999</ele>
        <time>2016-02-10T08:02:34Z</time>
      </trkpt>
      <trkpt lat="52.181653026491404" lon="11.014246987178922">
        <ele>123.7</ele>
        <time>2016-02-10T08:02:34Z</time>
      </trkpt>
      <trkpt lat="52.181559987366199" lon="11.014412026852369">
        <ele>122.90000000000001</ele>
        <time>2016-02-10T08:02:34Z</time>
      </trkpt>
      <trkpt lat="52.18123896047473" lon="11.014874959364533">
        <ele>120.2</ele>
        <time>2016-02-10T08:02:34Z</time>
      </trkpt>
      <trkpt lat="52.179007027298212" lon="11.017981041222811">
        <ele>120.90000000000001</ele>
        <time>2016-02-10T08:02:34Z</time>
      </trkpt>
      <trkpt lat="52.178164981305599" lon="11.019183006137609">
        <ele>122.2</ele>
        <time>2016-02-10T08:02:34Z</time>
      </trkpt>
      <trkpt lat="52.177960965782404" lon="11.019578967243433">
        <ele>122.2</ele>
        <time>2016-02-10T08:02:34Z</time>
      </trkpt>
      <trkpt lat="52.177903968840837" lon="11.019610986113548">
        <ele>121.8</ele>
        <time>2016-02-10T08:02:34Z</time>
      </trkpt>
      <trkpt lat="52.177712023258209" lon="11.019575027748942">
        <ele>119.59999999999999</ele>
        <time>2016-02-10T08:02:34Z</time>
      </trkpt>
      <trkpt lat="52.177507001906633" lon="11.019672006368637">
        <ele>117.59999999999999</ele>
        <time>2016-02-10T08:02:34Z</time>
      </trkpt>
      <trkpt lat="52.176409978419542" lon="11.020388994365931">
        <ele>120.09999999999999</ele>
        <time>2016-02-10T08:02:34Z</time>
      </trkpt>
      <trkpt lat="52.176386006176472" lon="11.020405003800988">
        <ele>120.09999999999999</ele>
        <time>2016-02-10T08:02:34Z</time>
      </trkpt>
      <trkpt lat="52.175013972446322" lon="11.021307986229658">
        <ele>122.3</ele>
        <time>2016-02-10T08:02:34Z</time>
      </trkpt>
      <trkpt lat="52.173721985891461" lon="11.022057998925447">
        <ele>123.90000000000001</ele>
        <time>2016-02-10T08:02:34Z</time>
      </trkpt>
      <trkpt lat="52.171705970540643" lon="11.023388961330056">
        <ele>125.90000000000001</ele>
        <time>2016-02-10T08:02:34Z</time>
      </trkpt>
      <trkpt lat="52.171026030555367" lon="11.023877039551735">
        <ele>125.7</ele>
        <time>2016-02-10T08:02:34Z</time>
      </trkpt>
      <trkpt lat="52.16797904111445" lon="11.025953991338611">
        <ele>123.7</ele>
        <time>2016-02-10T08:02:34Z</time>
      </trkpt>
      <trkpt lat="52.168027991428971" lon="11.026076031848788">
        <ele>123</ele>
        <time>2016-02-10T08:02:34Z</time>
      </trkpt>
      <trkpt lat="52.168031008914113" lon="11.026262026280165">
        <ele>122.09999999999999</ele>
        <time>2016-02-10T08:02:34Z</time>
      </trkpt>
      <trkpt lat="52.167984992265701" lon="11.026357999071479">
        <ele>121.8</ele>
        <time>2016-02-10T08:02:34Z</time>
      </trkpt>
      <trkpt lat="52.166119012981653" lon="11.028866032138467">
        <ele>118</ele>
        <time>2016-02-10T08:02:34Z</time>
      </trkpt>
      <trkpt lat="52.166248010471463" lon="11.029105000197887">
        <ele>117.5</ele>
        <time>2016-02-10T08:02:34Z</time>
      </trkpt>
      <trkpt lat="52.166299978271127" lon="11.029318990185857">
        <ele>117</ele>
        <time>2016-02-10T08:02:34Z</time>
      </trkpt>
      <trkpt lat="52.166310958564281" lon="11.029576985165477">
        <ele>116.3</ele>
        <time>2016-02-10T08:02:34Z</time>
      </trkpt>
      <trkpt lat="52.16628497466445" lon="11.03007503785193">
        <ele>115.2</ele>
        <time>2016-02-10T08:02:34Z</time>
      </trkpt>
      <trkpt lat="52.16628497466445" lon="11.030537970364094">
        <ele>114</ele>
        <time>2016-02-10T08:02:34Z</time>
      </trkpt>
      <trkpt lat="52.166195036843419" lon="11.031704982742667">
        <ele>111.3</ele>
        <time>2016-02-10T08:02:34Z</time>
      </trkpt>
      <trkpt lat="52.166179027408361" lon="11.032305965200067">
        <ele>110</ele>
        <time>2016-02-10T08:02:34Z</time>
      </trkpt>
      <trkpt lat="52.166208028793335" lon="11.032824972644448">
        <ele>108.3</ele>
        <time>2016-02-10T08:02:34Z</time>
      </trkpt>
      <trkpt lat="52.166257984936237" lon="11.033026976510882">
        <ele>107.3</ele>
        <time>2016-02-10T08:02:34Z</time>
      </trkpt>
      <trkpt lat="52.166373990476131" lon="11.033782018348575">
        <ele>105.5</ele>
        <time>2016-02-10T08:02:34Z</time>
      </trkpt>
      <trkpt lat="52.16645797714591" lon="11.034554997459054">
        <ele>104.3</ele>
        <time>2016-02-10T08:02:34Z</time>
      </trkpt>
      <trkpt lat="52.16652100905776" lon="11.034794971346855">
        <ele>103.40000000000001</ele>
        <time>2016-02-10T08:02:34Z</time>
      </trkpt>
      <trkpt lat="52.166573982685804" lon="11.035396037623286">
        <ele>102.3</ele>
        <time>2016-02-10T08:02:34Z</time>
      </trkpt>
      <trkpt lat="52.166731981560588" lon="11.035885037854314">
        <ele>101.40000000000001</ele>
        <time>2016-02-10T08:02:34Z</time>
      </trkpt>
      <trkpt lat="52.16710003092885" lon="11.036768993362784">
        <ele>100.3</ele>
        <time>2016-02-10T08:02:34Z</time>
      </trkpt>
      <trkpt lat="52.167521975934505" lon="11.037713969126344">
        <ele>99.599999999999994</ele>
        <time>2016-02-10T08:02:34Z</time>
      </trkpt>
      <trkpt lat="52.167904023081064" lon="11.038678977638483">
        <ele>100.3</ele>
        <time>2016-02-10T08:02:34Z</time>
      </trkpt>
      <trkpt lat="52.167975017800927" lon="11.038937978446484">
        <ele>101</ele>
        <time>2016-02-10T08:02:34Z</time>
      </trkpt>
      <trkpt lat="52.168310964480042" lon="11.041307961568236">
        <ele>109</ele>
        <time>2016-02-10T08:02:34Z</time>
      </trkpt>
      <trkpt lat="52.168485978618264" lon="11.042164005339146">
        <ele>113.40000000000001</ele>
        <time>2016-02-10T08:02:34Z</time>
      </trkpt>
      <trkpt lat="52.16858203522861" lon="11.043173018842936">
        <ele>118.40000000000001</ele>
        <time>2016-02-10T08:02:34Z</time>
      </trkpt>
      <trkpt lat="52.168576000258327" lon="11.043272009119391">
        <ele>118.8</ele>
        <time>2016-02-10T08:02:34Z</time>
      </trkpt>
      <trkpt lat="52.168538030236959" lon="11.043373011052608">
        <ele>119.09999999999999</ele>
        <time>2016-02-10T08:02:34Z</time>
      </trkpt>
      <trkpt lat="52.168468041345477" lon="11.043452974408865">
        <ele>119.09999999999999</ele>
        <time>2016-02-10T08:02:34Z</time>
      </trkpt>
      <trkpt lat="52.168087000027299" lon="11.043770983815193">
        <ele>117.8</ele>
        <time>2016-02-10T08:02:34Z</time>
      </trkpt>
      <trkpt lat="52.168016005307436" lon="11.043858993798494">
        <ele>117.5</ele>
        <time>2016-02-10T08:02:34Z</time>
      </trkpt>
      <trkpt lat="52.167937969788909" lon="11.044030990451574">
        <ele>117.59999999999999</ele>
        <time>2016-02-10T08:02:34Z</time>
      </trkpt>
      <trkpt lat="52.167884996160865" lon="11.044227965176105">
        <ele>118.2</ele>
        <time>2016-02-10T08:02:34Z</time>
      </trkpt>
      <trkpt lat="52.167832022532821" lon="11.044528037309647">
        <ele>119.5</ele>
        <time>2016-02-10T08:02:34Z</time>
      </trkpt>
      <trkpt lat="52.167743006721139" lon="11.045601004734635">
        <ele>120.90000000000001</ele>
        <time>2016-02-10T08:02:34Z</time>
      </trkpt>
      <trkpt lat="52.167636975646019" lon="11.047361036762595">
        <ele>123.5</ele>
        <time>2016-02-10T08:02:34Z</time>
      </trkpt>
      <trkpt lat="52.167568998411298" lon="11.047790022566915">
        <ele>124.40000000000001</ele>
        <time>2016-02-10T08:02:34Z</time>
      </trkpt>
      <trkpt lat="52.167410999536514" lon="11.048201993107796">
        <ele>124.8</ele>
        <time>2016-02-10T08:02:34Z</time>
      </trkpt>
      <trkpt lat="52.167227016761899" lon="11.048459988087416">
        <ele>124.59999999999999</ele>
        <time>2016-02-10T08:02:34Z</time>
      </trkpt>
      <trkpt lat="52.166506005451083" lon="11.049179993569851">
        <ele>122.5</ele>
        <time>2016-02-10T08:02:34Z</time>
      </trkpt>
      <trkpt lat="52.166321016848087" lon="11.049420973286033">
        <ele>122.40000000000001</ele>
        <time>2016-02-10T08:02:34Z</time>
      </trkpt>
      <trkpt lat="52.166126975789666" lon="11.049747029319406">
        <ele>122.40000000000001</ele>
        <time>2016-02-10T08:02:34Z</time>
      </trkpt>
      <trkpt lat="52.165874009951949" lon="11.050279028713703">
        <ele>122.5</ele>
        <time>2016-02-10T08:02:34Z</time>
      </trkpt>
      <trkpt lat="52.165558012202382" lon="11.051009008660913">
        <ele>120.59999999999999</ele>
        <time>2016-02-10T08:02:34Z</time>
      </trkpt>
      <trkpt lat="52.165400013327599" lon="11.051634969189763">
        <ele>120.7</ele>
        <time>2016-02-10T08:02:34Z</time>
      </trkpt>
      <trkpt lat="52.165391966700554" lon="11.05166899971664">
        <ele>120.7</ele>
        <time>2016-02-10T08:02:34Z</time>
      </trkpt>
      <trkpt lat="52.16523296199739" lon="11.052312981337309">
        <ele>120.7</ele>
        <time>2016-02-10T08:02:34Z</time>
      </trkpt>
      <trkpt lat="52.164215985685587" lon="11.053072968497872">
        <ele>115.3</ele>
        <time>2016-02-10T08:02:34Z</time>
      </trkpt>
      <trkpt lat="52.163764033466578" lon="11.053439006209373">
        <ele>113.7</ele>
        <time>2016-02-10T08:02:34Z</time>
      </trkpt>
      <trkpt lat="52.163204960525036" lon="11.053933035582304">
        <ele>111.90000000000001</ele>
        <time>2016-02-10T08:02:34Z</time>
      </trkpt>
      <trkpt lat="52.162781003862619" lon="11.054283985868096">
        <ele>111.5</ele>
        <time>2016-02-10T08:02:34Z</time>
      </trkpt>
      <trkpt lat="52.161434032022953" lon="11.05528000742197">
        <ele>110.90000000000001</ele>
        <time>2016-02-10T08:02:34Z</time>
      </trkpt>
      <trkpt lat="52.16125700622797" lon="11.055441023781896">
        <ele>110.5</ele>
        <time>2016-02-10T08:02:34Z</time>
      </trkpt>
      <trkpt lat="52.161089032888412" lon="11.05568996630609">
        <ele>110.09999999999999</ele>
        <time>2016-02-10T08:02:34Z</time>
      </trkpt>
      <trkpt lat="52.160861967131495" lon="11.056110989302397">
        <ele>108.8</ele>
        <time>2016-02-10T08:02:34Z</time>
      </trkpt>
      <trkpt lat="52.160029979422688" lon="11.057851994410157">
        <ele>106.09999999999999</ele>
        <time>2016-02-10T08:02:34Z</time>
      </trkpt>
      <trkpt lat="52.159850019961596" lon="11.058228006586432">
        <ele>106.5</ele>
        <time>2016-02-10T08:02:34Z</time>
      </trkpt>
      <trkpt lat="52.160028973594308" lon="11.058580968528986">
        <ele>106.5</ele>
        <time>2016-02-10T08:02:34Z</time>
      </trkpt>
      <trkpt lat="52.160123018547893" lon="11.058853967115283">
        <ele>106.3</ele>
        <time>2016-02-10T08:02:34Z</time>
      </trkpt>
      <trkpt lat="52.160529959946871" lon="11.060836035758257">
        <ele>109.7</ele>
        <time>2016-02-10T08:02:34Z</time>
      </trkpt>
      <trkpt lat="52.160620987415314" lon="11.061241971328855">
        <ele>110.8</ele>
        <time>2016-02-10T08:02:34Z</time>
      </trkpt>
      <trkpt lat="52.160679996013641" lon="11.061394019052386">
        <ele>111.09999999999999</ele>
        <time>2016-02-10T08:02:34Z</time>
      </trkpt>
      <trkpt lat="52.160724001005292" lon="11.061460990458727">
        <ele>111.3</ele>
        <time>2016-02-10T08:02:34Z</time>
      </trkpt>
      <trkpt lat="52.160886023193598" lon="11.061609014868736">
        <ele>111.5</ele>
        <time>2016-02-10T08:02:34Z</time>
      </trkpt>
      <trkpt lat="52.161421962082386" lon="11.062002964317799">
        <ele>112.09999999999999</ele>
        <time>2016-02-10T08:02:34Z</time>
      </trkpt>
      <trkpt lat="52.161549031734467" lon="11.062160963192582">
        <ele>112.7</ele>
        <time>2016-02-10T08:02:34Z</time>
      </trkpt>
      <trkpt lat="52.162619987502694" lon="11.064047981053591">
        <ele>113.7</ele>
        <time>2016-02-10T08:02:34Z</time>
      </trkpt>
      <trkpt lat="52.162693999707699" lon="11.06415300630033">
        <ele>113.8</ele>
        <time>2016-02-10T08:02:34Z</time>
      </trkpt>
      <trkpt lat="52.163570998236537" lon="11.065025981515646">
        <ele>114.5</ele>
        <time>2016-02-10T08:02:34Z</time>
      </trkpt>
      <trkpt lat="52.163696978241205" lon="11.065142992883921">
        <ele>114.7</ele>
        <time>2016-02-10T08:02:34Z</time>
      </trkpt>
      <trkpt lat="52.163818012923002" lon="11.065194038674235">
        <ele>114.8</ele>
        <time>2016-02-10T08:02:34Z</time>
      </trkpt>
      <trkpt lat="52.16398598626256" lon="11.065167970955372">
        <ele>115</ele>
        <time>2016-02-10T08:02:34Z</time>
      </trkpt>
      <trkpt lat="52.16450298205018" lon="11.064766980707645">
        <ele>114.59999999999999</ele>
        <time>2016-02-10T08:02:34Z</time>
      </trkpt>
      <trkpt lat="52.164610018953681" lon="11.064739990979433">
        <ele>114.8</ele>
        <time>2016-02-10T08:02:34Z</time>
      </trkpt>
      <trkpt lat="52.164719989523292" lon="11.064758012071252">
        <ele>115.2</ele>
        <time>2016-02-10T08:02:34Z</time>
      </trkpt>
      <trkpt lat="52.164829038083553" lon="11.064835041761398">
        <ele>115.7</ele>
        <time>2016-02-10T08:02:34Z</time>
      </trkpt>
      <trkpt lat="52.16497597284615" lon="11.065045008435845">
        <ele>116.8</ele>
        <time>2016-02-10T08:02:34Z</time>
      </trkpt>
      <trkpt lat="52.165332036092877" lon="11.066307993605733">
        <ele>119.3</ele>
        <time>2016-02-10T08:02:34Z</time>
      </trkpt>
      <trkpt lat="52.165722968056798" lon="11.067410968244076">
        <ele>119.59999999999999</ele>
        <time>2016-02-10T08:02:34Z</time>
      </trkpt>
      <trkpt lat="52.165765967220068" lon="11.06756703928113">
        <ele>119.59999999999999</ele>
        <time>2016-02-10T08:02:34Z</time>
      </trkpt>
      <trkpt lat="52.165805026888847" lon="11.067749010398984">
        <ele>119.40000000000001</ele>
        <time>2016-02-10T08:02:34Z</time>
      </trkpt>
      <trkpt lat="52.165893958881497" lon="11.068459041416645">
        <ele>119.40000000000001</ele>
        <time>2016-02-10T08:02:34Z</time>
      </trkpt>
      <trkpt lat="52.166147008538246" lon="11.069332016631961">
        <ele>120.8</ele>
        <time>2016-02-10T08:02:34Z</time>
      </trkpt>
      <trkpt lat="52.166259996592999" lon="11.070626014843583">
        <ele>120.8</ele>
        <time>2016-02-10T08:02:34Z</time>
      </trkpt>
      <trkpt lat="52.166510028764606" lon="11.071651037782431">
        <ele>122.2</ele>
        <time>2016-02-10T08:02:34Z</time>
      </trkpt>
      <trkpt lat="52.166522014886141" lon="11.071857986971736">
        <ele>122.59999999999999</ele>
        <time>2016-02-10T08:02:34Z</time>
      </trkpt>
      <trkpt lat="52.166518997400999" lon="11.073549035936594">
        <ele>124</ele>
        <time>2016-02-10T08:02:34Z</time>
      </trkpt>
      <trkpt lat="52.166523020714521" lon="11.073796972632408">
        <ele>124</ele>
        <time>2016-02-10T08:02:34Z</time>
      </trkpt>
      <trkpt lat="52.166544981300831" lon="11.075202031061053">
        <ele>123.09999999999999</ele>
        <time>2016-02-10T08:02:34Z</time>
      </trkpt>
      <trkpt lat="52.167041022330523" lon="11.07504403218627">
        <ele>123.90000000000001</ele>
        <time>2016-02-10T08:02:34Z</time>
      </trkpt>
      <trkpt lat="52.168470975011587" lon="11.074479008093476">
        <ele>132.30000000000001</ele>
        <time>2016-02-10T08:02:34Z</time>
      </trkpt>
      <trkpt lat="52.168523026630282" lon="11.07283397577703">
        <ele>133.80000000000001</ele>
        <time>2016-02-10T08:02:34Z</time>
      </trkpt>
      <trkpt lat="52.168586980551481" lon="11.072284961119294">
        <ele>134.80000000000001</ele>
        <time>2016-02-10T08:02:34Z</time>
      </trkpt>
      <trkpt lat="52.168636014685035" lon="11.072003999724984">
        <ele>135</ele>
        <time>2016-02-10T08:02:34Z</time>
      </trkpt>
      <trkpt lat="52.168771969154477" lon="11.071468982845545">
        <ele>135.59999999999999</ele>
        <time>2016-02-10T08:02:34Z</time>
      </trkpt>
      <trkpt lat="52.169018983840942" lon="11.070751994848251">
        <ele>137</ele>
        <time>2016-02-10T08:02:34Z</time>
      </trkpt>
      <trkpt lat="52.169242026284337" lon="11.070328960195184">
        <ele>138.5</ele>
        <time>2016-02-10T08:02:34Z</time>
      </trkpt>
      <trkpt lat="52.169392984360456" lon="11.070098960772157">
        <ele>139.19999999999999</ele>
        <time>2016-02-10T08:02:34Z</time>
      </trkpt>
      <trkpt lat="52.174346018582582" lon="11.063146004453301">
        <ele>126.09999999999999</ele>
        <time>2016-02-10T08:02:34Z</time>
      </trkpt>
      <trkpt lat="52.174675008282065" lon="11.062778038904071">
        <ele>126.59999999999999</ele>
        <time>2016-02-10T08:02:34Z</time>
      </trkpt>
      <trkpt lat="52.174924034625292" lon="11.062528006732464">
        <ele>127.5</ele>
        <time>2016-02-10T08:02:34Z</time>
      </trkpt>
      <trkpt lat="52.175216982141137" lon="11.062288032844663">
        <ele>129.09999999999999</ele>
        <time>2016-02-10T08:02:34Z</time>
      </trkpt>
      <trkpt lat="52.175508001819253" lon="11.062094997614622">
        <ele>130.5</ele>
        <time>2016-02-10T08:02:34Z</time>
      </trkpt>
      <trkpt lat="52.176270000636578" lon="11.061656037345529">
        <ele>133.90000000000001</ele>
        <time>2016-02-10T08:02:34Z</time>
      </trkpt>
      <trkpt lat="52.176751960068941" lon="11.061296034604311">
        <ele>135.69999999999999</ele>
        <time>2016-02-10T08:02:34Z</time>
      </trkpt>
      <trkpt lat="52.178607964888215" lon="11.059588976204395">
        <ele>142.90000000000001</ele>
        <time>2016-02-10T08:02:34Z</time>
      </trkpt>
      <trkpt lat="52.179693002253771" lon="11.058492036536336">
        <ele>144.80000000000001</ele>
        <time>2016-02-10T08:02:34Z</time>
      </trkpt>
      <trkpt lat="52.180248973891139" lon="11.057883007451892">
        <ele>144.80000000000001</ele>
        <time>2016-02-10T08:02:34Z</time>
      </trkpt>
      <trkpt lat="52.181382039561868" lon="11.056462023407221">
        <ele>146.59999999999999</ele>
        <time>2016-02-10T08:02:34Z</time>
      </trkpt>
      <trkpt lat="52.181586977094412" lon="11.056228000670671">
        <ele>146.69999999999999</ele>
        <time>2016-02-10T08:02:34Z</time>
      </trkpt>
      <trkpt lat="52.182105984538794" lon="11.055763978511095">
        <ele>145.30000000000001</ele>
        <time>2016-02-10T08:02:34Z</time>
      </trkpt>
      <trkpt lat="52.183457985520363" lon="11.05476301163435">
        <ele>141.90000000000001</ele>
        <time>2016-02-10T08:02:34Z</time>
      </trkpt>
      <trkpt lat="52.183792004361749" lon="11.054465034976602">
        <ele>140.30000000000001</ele>
        <time>2016-02-10T08:02:34Z</time>
      </trkpt>
      <trkpt lat="52.184054022654891" lon="11.05416202917695">
        <ele>139.09999999999999</ele>
        <time>2016-02-10T08:02:34Z</time>
      </trkpt>
      <trkpt lat="52.184288967400789" lon="11.053820969536901">
        <ele>137.80000000000001</ele>
        <time>2016-02-10T08:02:34Z</time>
      </trkpt>
      <trkpt lat="52.184815015643835" lon="11.052973978221416">
        <ele>134.19999999999999</ele>
        <time>2016-02-10T08:02:34Z</time>
      </trkpt>
      <trkpt lat="52.18602703884244" lon="11.050872970372438">
        <ele>130.59999999999999</ele>
        <time>2016-02-10T08:02:34Z</time>
      </trkpt>
      <trkpt lat="52.186229964718223" lon="11.05055496096611">
        <ele>130.30000000000001</ele>
        <time>2016-02-10T08:02:34Z</time>
      </trkpt>
      <trkpt lat="52.186452001333237" lon="11.050146007910371">
        <ele>130</ele>
        <time>2016-02-10T08:02:34Z</time>
      </trkpt>
      <trkpt lat="52.186548979952931" lon="11.049940986558795">
        <ele>129.90000000000001</ele>
        <time>2016-02-10T08:02:34Z</time>
      </trkpt>
      <trkpt lat="52.187496973201632" lon="11.047598998993635">
        <ele>128.40000000000001</ele>
        <time>2016-02-10T08:02:34Z</time>
      </trkpt>
      <trkpt lat="52.187535027042031" lon="11.047476036474109">
        <ele>128.40000000000001</ele>
        <time>2016-02-10T08:02:34Z</time>
      </trkpt>
      <trkpt lat="52.187808025628328" lon="11.046417988836765">
        <ele>127</ele>
        <time>2016-02-10T08:02:34Z</time>
      </trkpt>
      <trkpt lat="52.187844989821315" lon="11.046314975246787">
        <ele>126.90000000000001</ele>
        <time>2016-02-10T08:02:34Z</time>
      </trkpt>
      <trkpt lat="52.187968958169222" lon="11.046294020488858">
        <ele>126.59999999999999</ele>
        <time>2016-02-10T08:02:34Z</time>
      </trkpt>
      <trkpt lat="52.188078006729484" lon="11.046242974698544">
        <ele>126.3</ele>
        <time>2016-02-10T08:02:34Z</time>
      </trkpt>
      <trkpt lat="52.188285961747169" lon="11.046020016074181">
        <ele>125.59999999999999</ele>
        <time>2016-02-10T08:02:34Z</time>
      </trkpt>
      <trkpt lat="52.188544040545821" lon="11.045662024989724">
        <ele>125</ele>
        <time>2016-02-10T08:02:34Z</time>
      </trkpt>
      <trkpt lat="52.188771022483706" lon="11.045403024181724">
        <ele>125</ele>
        <time>2016-02-10T08:02:34Z</time>
      </trkpt>
      <trkpt lat="52.18897202052176" lon="11.045218035578728">
        <ele>125</ele>
        <time>2016-02-10T08:02:34Z</time>
      </trkpt>
      <trkpt lat="52.18985203653574" lon="11.044657034799457">
        <ele>126</ele>
        <time>2016-02-10T08:02:34Z</time>
      </trkpt>
      <trkpt lat="52.190229976549745" lon="11.044415971264243">
        <ele>127.40000000000001</ele>
        <time>2016-02-10T08:02:34Z</time>
      </trkpt>
      <trkpt lat="52.19036802649498" lon="11.044362997636199">
        <ele>127.8</ele>
        <time>2016-02-10T08:02:34Z</time>
      </trkpt>
      <trkpt lat="52.190539017319679" lon="11.044348999857903">
        <ele>128.5</ele>
        <time>2016-02-10T08:02:34Z</time>
      </trkpt>
      <trkpt lat="52.190759964287281" lon="11.04438797570765">
        <ele>129.30000000000001</ele>
        <time>2016-02-10T08:02:34Z</time>
      </trkpt>
      <trkpt lat="52.19084202311933" lon="11.044438015669584">
        <ele>129.59999999999999</ele>
        <time>2016-02-10T08:02:34Z</time>
      </trkpt>
      <trkpt lat="52.191153997555375" lon="11.044716965407133">
        <ele>130.80000000000001</ele>
        <time>2016-02-10T08:02:34Z</time>
      </trkpt>
      <trkpt lat="52.191297998651862" lon="11.044773040339351">
        <ele>131.30000000000001</ele>
        <time>2016-02-10T08:02:34Z</time>
      </trkpt>
      <trkpt lat="52.191372010856867" lon="11.04477203451097">
        <ele>131.59999999999999</ele>
        <time>2016-02-10T08:02:34Z</time>
      </trkpt>
      <trkpt lat="52.191448034718633" lon="11.044744038954377">
        <ele>131.90000000000001</ele>
        <time>2016-02-10T08:02:34Z</time>
      </trkpt>
      <trkpt lat="52.191449962556362" lon="11.044762982055545">
        <ele>131.90000000000001</ele>
        <time>2016-02-10T08:02:34Z</time>
      </trkpt>
      <trkpt lat="52.191488016396761" lon="11.045145029202104">
        <ele>132.09999999999999</ele>
        <time>2016-02-10T08:02:34Z</time>
      </trkpt>
      <trkpt lat="52.191532021388412" lon="11.045236978679895">
        <ele>132.30000000000001</ele>
        <time>2016-02-10T08:02:34Z</time>
      </trkpt>
      <trkpt lat="52.191477958112955" lon="11.045874003320932">
        <ele>132.30000000000001</ele>
        <time>2016-02-10T08:02:34Z</time>
      </trkpt>
      <trkpt lat="52.191480975598097" lon="11.046011969447136">
        <ele>132.30000000000001</ele>
        <time>2016-02-10T08:02:34Z</time>
      </trkpt>
      <trkpt lat="52.191481981426477" lon="11.046077013015747">
        <ele>132.40000000000001</ele>
        <time>2016-02-10T08:02:34Z</time>
      </trkpt>
      <trkpt lat="52.191428001970053" lon="11.046095034107566">
        <ele>132.30000000000001</ele>
        <time>2016-02-10T08:02:34Z</time>
      </trkpt>
      <trkpt lat="52.191071016713977" lon="11.046228976920247">
        <ele>131.30000000000001</ele>
        <time>2016-02-10T08:02:34Z</time>
      </trkpt>
      <trkpt lat="52.191022988408804" lon="11.046246998012066">
        <ele>131.09999999999999</ele>
        <time>2016-02-10T08:02:34Z</time>
      </trkpt>
      <trkpt lat="52.191060958430171" lon="11.046713031828403">
        <ele>131.5</ele>
        <time>2016-02-10T08:02:34Z</time>
      </trkpt>
      <trkpt lat="52.190956017002463" lon="11.04735198430717">
        <ele>132.90000000000001</ele>
        <time>2016-02-10T08:02:34Z</time>
      </trkpt>
      <trkpt lat="52.190887033939362" lon="11.047538984566927">
        <ele>133.30000000000001</ele>
        <time>2016-02-10T08:02:34Z</time>
      </trkpt>
      <trkpt lat="52.190932966768742" lon="11.047864034771919">
        <ele>134.59999999999999</ele>
        <time>2016-02-10T08:02:34Z</time>
      </trkpt>
      <trkpt lat="52.191188028082252" lon="11.048113983124495">
        <ele>135.90000000000001</ele>
        <time>2016-02-10T08:02:34Z</time>
      </trkpt>
      <trkpt lat="52.191206971183419" lon="11.048452025279403">
        <ele>136.40000000000001</ele>
        <time>2016-02-10T08:02:34Z</time>
      </trkpt>
      <trkpt lat="52.191182998940349" lon="11.048809010535479">
        <ele>137</ele>
        <time>2016-02-10T08:02:34Z</time>
      </trkpt>
      <trkpt lat="52.191221974790096" lon="11.04902702383697">
        <ele>137.59999999999999</ele>
        <time>2016-02-10T08:02:34Z</time>
      </trkpt>
      <trkpt lat="52.191364970058203" lon="11.049233973026276">
        <ele>138.19999999999999</ele>
        <time>2016-02-10T08:02:34Z</time>
      </trkpt>
      <trkpt lat="52.191368993371725" lon="11.04926398023963">
        <ele>138.19999999999999</ele>
        <time>2016-02-10T08:02:34Z</time>
      </trkpt>
      <trkpt lat="52.191364970058203" lon="11.049233973026276">
        <ele>138.19999999999999</ele>
        <time>2016-02-10T08:02:34Z</time>
      </trkpt>
      <trkpt lat="52.191221974790096" lon="11.04902702383697">
        <ele>137.59999999999999</ele>
        <time>2016-02-10T08:02:34Z</time>
      </trkpt>
      <trkpt lat="52.191182998940349" lon="11.048809010535479">
        <ele>137</ele>
        <time>2016-02-10T08:02:34Z</time>
      </trkpt>
      <trkpt lat="52.191206971183419" lon="11.048452025279403">
        <ele>136.40000000000001</ele>
        <time>2016-02-10T08:02:34Z</time>
      </trkpt>
      <trkpt lat="52.191188028082252" lon="11.048113983124495">
        <ele>135.90000000000001</ele>
        <time>2016-02-10T08:02:34Z</time>
      </trkpt>
      <trkpt lat="52.190932966768742" lon="11.047864034771919">
        <ele>134.59999999999999</ele>
        <time>2016-02-10T08:02:34Z</time>
      </trkpt>
      <trkpt lat="52.190887033939362" lon="11.047538984566927">
        <ele>133.30000000000001</ele>
        <time>2016-02-10T08:02:34Z</time>
      </trkpt>
      <trkpt lat="52.190956017002463" lon="11.04735198430717">
        <ele>132.90000000000001</ele>
        <time>2016-02-10T08:02:34Z</time>
      </trkpt>
      <trkpt lat="52.191060958430171" lon="11.046713031828403">
        <ele>131.5</ele>
        <time>2016-02-10T08:02:34Z</time>
      </trkpt>
      <trkpt lat="52.191022988408804" lon="11.046246998012066">
        <ele>131.09999999999999</ele>
        <time>2016-02-10T08:02:34Z</time>
      </trkpt>
      <trkpt lat="52.191428001970053" lon="11.046095034107566">
        <ele>132.30000000000001</ele>
        <time>2016-02-10T08:02:34Z</time>
      </trkpt>
      <trkpt lat="52.191481981426477" lon="11.046077013015747">
        <ele>132.40000000000001</ele>
        <time>2016-02-10T08:02:34Z</time>
      </trkpt>
      <trkpt lat="52.191480975598097" lon="11.046011969447136">
        <ele>132.30000000000001</ele>
        <time>2016-02-10T08:02:34Z</time>
      </trkpt>
      <trkpt lat="52.191478963941336" lon="11.045923037454486">
        <ele>132.30000000000001</ele>
        <time>2016-02-10T08:02:34Z</time>
      </trkpt>
      <trkpt lat="52.191477958112955" lon="11.045874003320932">
        <ele>132.30000000000001</ele>
        <time>2016-02-10T08:02:34Z</time>
      </trkpt>
      <trkpt lat="52.191532021388412" lon="11.045236978679895">
        <ele>132.30000000000001</ele>
        <time>2016-02-10T08:02:34Z</time>
      </trkpt>
      <trkpt lat="52.191488016396761" lon="11.045145029202104">
        <ele>132.09999999999999</ele>
        <time>2016-02-10T08:02:34Z</time>
      </trkpt>
      <trkpt lat="52.191448034718633" lon="11.044744038954377">
        <ele>131.90000000000001</ele>
        <time>2016-02-10T08:02:34Z</time>
      </trkpt>
      <trkpt lat="52.192450007423759" lon="11.044040964916348">
        <ele>138</ele>
        <time>2016-02-10T08:02:34Z</time>
      </trkpt>
      <trkpt lat="52.192884022369981" lon="11.043680040165782">
        <ele>140.09999999999999</ele>
        <time>2016-02-10T08:02:34Z</time>
      </trkpt>
      <trkpt lat="52.19309801235795" lon="11.043435037136078">
        <ele>141.09999999999999</ele>
        <time>2016-02-10T08:02:34Z</time>
      </trkpt>
      <trkpt lat="52.193427002057433" lon="11.042962968349457">
        <ele>141.5</ele>
        <time>2016-02-10T08:02:34Z</time>
      </trkpt>
      <trkpt lat="52.193868979811668" lon="11.042242040857673">
        <ele>142.30000000000001</ele>
        <time>2016-02-10T08:02:34Z</time>
      </trkpt>
      <trkpt lat="52.194121023640037" lon="11.041869968175888">
        <ele>143.09999999999999</ele>
        <time>2016-02-10T08:02:34Z</time>
      </trkpt>
      <trkpt lat="52.194357980042696" lon="11.041521029546857">
        <ele>143.30000000000001</ele>
        <time>2016-02-10T08:02:34Z</time>
      </trkpt>
      <trkpt lat="52.194405002519488" lon="11.041451040655375">
        <ele>143.30000000000001</ele>
        <time>2016-02-10T08:02:34Z</time>
      </trkpt>
      <trkpt lat="52.194440038874745" lon="11.041498985141516">
        <ele>143.40000000000001</ele>
        <time>2016-02-10T08:02:34Z</time>
      </trkpt>
      <trkpt lat="52.195024006068707" lon="11.040525007992983">
        <ele>144</ele>
        <time>2016-02-10T08:02:34Z</time>
      </trkpt>
      <trkpt lat="52.195448968559504" lon="11.03996098972857">
        <ele>145.30000000000001</ele>
        <time>2016-02-10T08:02:34Z</time>
      </trkpt>
      <trkpt lat="52.195636974647641" lon="11.039754040539265">
        <ele>145.09999999999999</ele>
        <time>2016-02-10T08:02:34Z</time>
      </trkpt>
      <trkpt lat="52.195883989334106" lon="11.039546001702547">
        <ele>144.90000000000001</ele>
        <time>2016-02-10T08:02:34Z</time>
      </trkpt>
      <trkpt lat="52.196745984256268" lon="11.038937978446484">
        <ele>145.69999999999999</ele>
        <time>2016-02-10T08:02:34Z</time>
      </trkpt>
      <trkpt lat="52.197488034144044" lon="11.038508992642164">
        <ele>148.09999999999999</ele>
        <time>2016-02-10T08:02:34Z</time>
      </trkpt>
      <trkpt lat="52.197660030797124" lon="11.038449984043837">
        <ele>148.09999999999999</ele>
        <time>2016-02-10T08:02:34Z</time>
      </trkpt>
      <trkpt lat="52.197752986103296" lon="11.038403967395425">
        <ele>148.09999999999999</ele>
        <time>2016-02-10T08:02:34Z</time>
      </trkpt>
      <trkpt lat="52.198235029354692" lon="11.038166005164385">
        <ele>148.19999999999999</ele>
        <time>2016-02-10T08:02:34Z</time>
      </trkpt>
      <trkpt lat="52.199266003444791" lon="11.037590000778437">
        <ele>148.30000000000001</ele>
        <time>2016-02-10T08:02:34Z</time>
      </trkpt>
      <trkpt lat="52.19950295984745" lon="11.037366958335042">
        <ele>148.30000000000001</ele>
        <time>2016-02-10T08:02:34Z</time>
      </trkpt>
      <trkpt lat="52.201613020151854" lon="11.034894967451692">
        <ele>151.69999999999999</ele>
        <time>2016-02-10T08:02:34Z</time>
      </trkpt>
      <trkpt lat="52.201960030943155" lon="11.034534964710474">
        <ele>151.59999999999999</ele>
        <time>2016-02-10T08:02:34Z</time>
      </trkpt>
      <trkpt lat="52.202138984575868" lon="11.034379983320832">
        <ele>151.90000000000001</ele>
        <time>2016-02-10T08:02:34Z</time>
      </trkpt>
      <trkpt lat="52.202560007572174" lon="11.034165993332863">
        <ele>152.80000000000001</ele>
        <time>2016-02-10T08:02:34Z</time>
      </trkpt>
      <trkpt lat="52.202651035040617" lon="11.034125005826354">
        <ele>153</ele>
        <time>2016-02-10T08:02:34Z</time>
      </trkpt>
      <trkpt lat="52.204215014353395" lon="11.033418998122215">
        <ele>155.30000000000001</ele>
        <time>2016-02-10T08:02:34Z</time>
      </trkpt>
      <trkpt lat="52.204366978257895" lon="11.033465014770627">
        <ele>155.40000000000001</ele>
        <time>2016-02-10T08:02:34Z</time>
      </trkpt>
      <trkpt lat="52.204402014613152" lon="11.033518994227052">
        <ele>155.30000000000001</ele>
        <time>2016-02-10T08:02:34Z</time>
      </trkpt>
      <trkpt lat="52.204418024048209" lon="11.033583031967282">
        <ele>155.19999999999999</ele>
        <time>2016-02-10T08:02:34Z</time>
      </trkpt>
      <trkpt lat="52.204547021538019" lon="11.033484041690826">
        <ele>155.30000000000001</ele>
        <time>2016-02-10T08:02:34Z</time>
      </trkpt>
      <trkpt lat="52.204531012102962" lon="11.0333869792521">
        <ele>155.5</ele>
        <time>2016-02-10T08:02:34Z</time>
      </trkpt>
      <trkpt lat="52.204536041244864" lon="11.033309027552605">
        <ele>155.59999999999999</ele>
        <time>2016-02-10T08:02:34Z</time>
      </trkpt>
      <trkpt lat="52.204576022922993" lon="11.033142982050776">
        <ele>155.80000000000001</ele>
        <time>2016-02-10T08:02:34Z</time>
      </trkpt>
      <trkpt lat="52.204609969630837" lon="11.033097971230745">
        <ele>155.90000000000001</ele>
        <time>2016-02-10T08:02:34Z</time>
      </trkpt>
      <trkpt lat="52.205465007573366" lon="11.032357010990381">
        <ele>153.69999999999999</ele>
        <time>2016-02-10T08:02:34Z</time>
      </trkpt>
      <trkpt lat="52.205658964812756" lon="11.032213009893894">
        <ele>152</ele>
        <time>2016-02-10T08:02:34Z</time>
      </trkpt>
      <trkpt lat="52.20585803501308" lon="11.032001031562686">
        <ele>150</ele>
        <time>2016-02-10T08:02:34Z</time>
      </trkpt>
      <trkpt lat="52.206279980018735" lon="11.031475989148021">
        <ele>144.40000000000001</ele>
        <time>2016-02-10T08:02:34Z</time>
      </trkpt>
      <trkpt lat="52.207392007112503" lon="11.030094986781478">
        <ele>137.69999999999999</ele>
        <time>2016-02-10T08:02:34Z</time>
      </trkpt>
      <trkpt lat="52.208542004227638" lon="11.028621029108763">
        <ele>131.90000000000001</ele>
        <time>2016-02-10T08:02:34Z</time>
      </trkpt>
      <trkpt lat="52.208712995052338" lon="11.02829497307539">
        <ele>130.69999999999999</ele>
        <time>2016-02-10T08:02:34Z</time>
      </trkpt>
      <trkpt lat="52.209416991099715" lon="11.026666034013033">
        <ele>128.80000000000001</ele>
        <time>2016-02-10T08:02:34Z</time>
      </trkpt>
      <trkpt lat="52.209588987752795" lon="11.026394041255116">
        <ele>128.19999999999999</ele>
        <time>2016-02-10T08:02:34Z</time>
      </trkpt>
      <trkpt lat="52.209957037121058" lon="11.025950973853469">
        <ele>127.3</ele>
        <time>2016-02-10T08:02:34Z</time>
      </trkpt>
      <trkpt lat="52.21155202947557" lon="11.024380037561059">
        <ele>125.59999999999999</ele>
        <time>2016-02-10T08:02:34Z</time>
      </trkpt>
      <trkpt lat="52.211928963661194" lon="11.023977035656571">
        <ele>125</ele>
        <time>2016-02-10T08:02:34Z</time>
      </trkpt>
      <trkpt lat="52.213992001488805" lon="11.021365988999605">
        <ele>126.3</ele>
        <time>2016-02-10T08:02:34Z</time>
      </trkpt>
      <trkpt lat="52.214055033400655" lon="11.02133103646338">
        <ele>126.40000000000001</ele>
        <time>2016-02-10T08:02:34Z</time>
      </trkpt>
      <trkpt lat="52.214395003393292" lon="11.021392978727818">
        <ele>127.5</ele>
        <time>2016-02-10T08:02:34Z</time>
      </trkpt>
      <trkpt lat="52.214502962306142" lon="11.02139800786972">
        <ele>127.8</ele>
        <time>2016-02-10T08:02:34Z</time>
      </trkpt>
      <trkpt lat="52.214571023359895" lon="11.021368000656366">
        <ele>128</ele>
        <time>2016-02-10T08:02:34Z</time>
      </trkpt>
      <trkpt lat="52.214628020301461" lon="11.021301029250026">
        <ele>128.19999999999999</ele>
        <time>2016-02-10T08:02:34Z</time>
      </trkpt>
      <trkpt lat="52.214750982820988" lon="11.021059965714812">
        <ele>128.59999999999999</ele>
        <time>2016-02-10T08:02:34Z</time>
      </trkpt>
      <trkpt lat="52.214935971423984" lon="11.020867014303803">
        <ele>129.19999999999999</ele>
        <time>2016-02-10T08:02:34Z</time>
      </trkpt>
      <trkpt lat="52.215054994449019" lon="11.020584963262081">
        <ele>129.30000000000001</ele>
        <time>2016-02-10T08:02:34Z</time>
      </trkpt>
      <trkpt lat="52.215146021917462" lon="11.020253039896488">
        <ele>129.5</ele>
        <time>2016-02-10T08:02:34Z</time>
      </trkpt>
      <trkpt lat="52.215203018859029" lon="11.020134016871452">
        <ele>129.69999999999999</ele>
        <time>2016-02-10T08:02:34Z</time>
      </trkpt>
      <trkpt lat="52.215219028294086" lon="11.020114989951253">
        <ele>129.80000000000001</ele>
        <time>2016-02-10T08:02:34Z</time>
      </trkpt>
      <trkpt lat="52.215402005240321" lon="11.019890019670129">
        <ele>130.30000000000001</ele>
        <time>2016-02-10T08:02:34Z</time>
      </trkpt>
      <trkpt lat="52.215591017156839" lon="11.019582990556955">
        <ele>130.30000000000001</ele>
        <time>2016-02-10T08:02:34Z</time>
      </trkpt>
      <trkpt lat="52.215546006336808" lon="11.019473019987345">
        <ele>129.69999999999999</ele>
        <time>2016-02-10T08:02:34Z</time>
      </trkpt>
      <trkpt lat="52.215363029390574" lon="11.018493007868528">
        <ele>127.2</ele>
        <time>2016-02-10T08:02:34Z</time>
      </trkpt>
      <trkpt lat="52.215295974165201" lon="11.017808960750699">
        <ele>126</ele>
        <time>2016-02-10T08:02:34Z</time>
      </trkpt>
      <trkpt lat="52.215269990265369" lon="11.017206972464919">
        <ele>125</ele>
        <time>2016-02-10T08:02:34Z</time>
      </trkpt>
      <trkpt lat="52.215256998315454" lon="11.016350006684661">
        <ele>123.90000000000001</ele>
        <time>2016-02-10T08:02:34Z</time>
      </trkpt>
      <trkpt lat="52.215274013578892" lon="11.015541991218925">
        <ele>124</ele>
        <time>2016-02-10T08:02:34Z</time>
      </trkpt>
      <trkpt lat="52.215008977800608" lon="11.015509972348809">
        <ele>122.5</ele>
        <time>2016-02-10T08:02:34Z</time>
      </trkpt>
      <trkpt lat="52.214967990294099" lon="11.015433026477695">
        <ele>122.2</ele>
        <time>2016-02-10T08:02:34Z</time>
      </trkpt>
      <trkpt lat="52.21494703553617" lon="11.015394972637296">
        <ele>122.09999999999999</ele>
        <time>2016-02-10T08:02:34Z</time>
      </trkpt>
      <trkpt lat="52.21492700278759" lon="11.015281984582543">
        <ele>122</ele>
        <time>2016-02-10T08:02:34Z</time>
      </trkpt>
      <trkpt lat="52.215016018599272" lon="11.013588001951575">
        <ele>121.09999999999999</ele>
        <time>2016-02-10T08:02:34Z</time>
      </trkpt>
      <trkpt lat="52.215051976963878" lon="11.013322966173291">
        <ele>121.40000000000001</ele>
        <time>2016-02-10T08:02:34Z</time>
      </trkpt>
      <trkpt lat="52.215208970010281" lon="11.013162033632398">
        <ele>122.5</ele>
        <time>2016-02-10T08:02:34Z</time>
      </trkpt>
      <trkpt lat="52.21524802967906" lon="11.013091960921884">
        <ele>122.8</ele>
        <time>2016-02-10T08:02:34Z</time>
      </trkpt>
      <trkpt lat="52.215337967500091" lon="11.012651994824409">
        <ele>123.40000000000001</ele>
        <time>2016-02-10T08:02:34Z</time>
      </trkpt>
      <trkpt lat="52.215339979156852" lon="11.012486033141613">
        <ele>123.40000000000001</ele>
        <time>2016-02-10T08:02:34Z</time>
      </trkpt>
      <trkpt lat="52.215285999700427" lon="11.012055035680532">
        <ele>123.59999999999999</ele>
        <time>2016-02-10T08:02:34Z</time>
      </trkpt>
      <trkpt lat="52.215293040499091" lon="11.011509960517287">
        <ele>124.5</ele>
        <time>2016-02-10T08:02:34Z</time>
      </trkpt>
      <trkpt lat="52.215320030227304" lon="11.008853986859322">
        <ele>127.59999999999999</ele>
        <time>2016-02-10T08:02:34Z</time>
      </trkpt>
      <trkpt lat="52.215283988043666" lon="11.008748039603233">
        <ele>127.5</ele>
        <time>2016-02-10T08:02:34Z</time>
      </trkpt>
      <trkpt lat="52.215243000537157" lon="11.008537989109755">
        <ele>127.3</ele>
        <time>2016-02-10T08:02:34Z</time>
      </trkpt>
      <trkpt lat="52.215302009135485" lon="11.007211972028017">
        <ele>130.19999999999999</ele>
        <time>2016-02-10T08:02:34Z</time>
      </trkpt>
      <trkpt lat="52.215366968885064" lon="11.006823973730206">
        <ele>130.59999999999999</ele>
        <time>2016-02-10T08:02:34Z</time>
      </trkpt>
      <trkpt lat="52.215493032708764" lon="11.006399011239409">
        <ele>131.30000000000001</ele>
        <time>2016-02-10T08:02:34Z</time>
      </trkpt>
    </trkseg>
  </trk>

</gpx>
